Time,TemperatureF,DewpointF,PressureIn,WindDirection,WindDirectionDegrees,WindSpeedMPH,WindSpeedGustMPH,Humidity,HourlyPrecipIn,Conditions,Clouds,dailyrainin,SolarRadiationWatts/m^2,SoftwareType,DateUTC
2013-04-23 00:00:00,47.5,35.1,30.11,South,175,3.0,9.0,62,0.00,,,0.00,0.0,meteohub,2013-04-23 04:00:00,
2013-04-23 00:01:00,47.5,35.1,30.11,South,172,8.0,13.0,62,0.00,,,0.00,0.0,meteohub,2013-04-23 04:01:00,
2013-04-23 00:02:00,47.5,35.1,30.11,SSW,193,3.0,13.0,62,0.00,,,0.00,0.0,meteohub,2013-04-23 04:02:00,
2013-04-23 00:07:00,47.7,34.9,30.11,South,171,5.0,13.0,61,0.00,,,0.00,0.0,meteohub,2013-04-23 04:07:00,
2013-04-23 00:12:00,47.7,35.2,30.11,SE,146,8.0,13.0,62,0.00,,,0.00,0.0,meteohub,2013-04-23 04:12:00,
2013-04-23 00:17:00,47.7,35.2,30.10,South,180,5.0,13.0,62,0.00,,,0.00,0.0,meteohub,2013-04-23 04:17:00,
2013-04-23 00:22:00,47.8,35.4,30.10,SSW,209,3.0,12.0,62,0.00,,,0.00,0.0,meteohub,2013-04-23 04:22:00,
2013-04-23 00:27:00,47.7,35.2,30.10,South,180,3.0,13.0,62,0.00,,,0.00,0.0,meteohub,2013-04-23 04:27:00,
2013-04-23 00:32:00,47.7,35.2,30.10,SSE,165,8.0,13.0,62,0.00,,,0.00,0.0,meteohub,2013-04-23 04:32:00,
2013-04-23 00:37:00,47.8,35.4,30.10,SSW,200,2.0,13.0,62,0.00,,,0.00,0.0,meteohub,2013-04-23 04:37:00,
2013-04-23 00:42:00,47.7,35.2,30.10,South,172,7.0,13.0,62,0.00,,,0.00,0.0,meteohub,2013-04-23 04:42:00,
2013-04-23 00:47:00,47.7,35.2,30.10,South,171,7.0,13.0,62,0.00,,,0.00,0.0,meteohub,2013-04-23 04:47:00,
2013-04-23 00:53:00,47.7,35.2,30.09,South,173,4.0,13.0,62,0.00,,,0.00,0.0,meteohub,2013-04-23 04:53:00,
2013-04-23 00:58:00,47.5,35.1,30.09,SSE,158,5.0,13.0,62,0.00,,,0.00,0.0,meteohub,2013-04-23 04:58:00,
2013-04-23 01:03:00,47.3,35.4,30.09,SSE,166,10.0,13.0,63,0.00,,,0.00,0.0,meteohub,2013-04-23 05:03:00,
2013-04-23 01:08:00,47.1,35.2,30.09,South,188,10.0,12.0,63,0.00,,,0.00,0.0,meteohub,2013-04-23 05:08:00,
2013-04-23 01:13:00,47.1,35.2,30.09,South,180,5.0,13.0,63,0.00,,,0.00,0.0,meteohub,2013-04-23 05:13:00,
2013-04-23 01:18:00,46.9,35.1,30.09,South,173,6.0,13.0,63,0.00,,,0.00,0.0,meteohub,2013-04-23 05:18:00,
2013-04-23 01:23:00,46.9,35.1,30.09,SSE,148,8.0,12.0,63,0.00,,,0.00,0.0,meteohub,2013-04-23 05:23:00,
2013-04-23 01:28:00,46.8,34.9,30.09,SSW,208,5.0,12.0,63,0.00,,,0.00,0.0,meteohub,2013-04-23 05:28:00,
2013-04-23 01:33:00,46.8,34.9,30.09,SSE,160,3.0,11.0,63,0.00,,,0.00,0.0,meteohub,2013-04-23 05:33:00,
2013-04-23 01:38:00,46.8,34.9,30.09,South,175,6.0,11.0,63,0.00,,,0.00,0.0,meteohub,2013-04-23 05:38:00,
2013-04-23 01:43:00,46.8,34.9,30.09,South,190,4.0,11.0,63,0.00,,,0.00,0.0,meteohub,2013-04-23 05:43:00,
2013-04-23 01:48:00,46.6,34.7,30.09,SE,145,5.0,11.0,63,0.00,,,0.00,0.0,meteohub,2013-04-23 05:48:00,
2013-04-23 01:53:00,46.4,34.5,30.09,SSW,193,5.0,11.0,63,0.00,,,0.00,0.0,meteohub,2013-04-23 05:53:00,
2013-04-23 01:58:00,46.2,34.3,30.08,South,177,8.0,10.0,63,0.00,,,0.00,0.0,meteohub,2013-04-23 05:58:00,
2013-04-23 02:03:00,46.0,34.2,30.08,SSW,192,6.0,10.0,63,0.00,,,0.00,0.0,meteohub,2013-04-23 06:03:00,
2013-04-23 02:08:00,46.0,34.5,30.08,South,191,1.0,10.0,64,0.00,,,0.00,0.0,meteohub,2013-04-23 06:08:00,
2013-04-23 02:13:00,45.9,34.3,30.07,SSE,167,8.0,10.0,64,0.00,,,0.00,0.0,meteohub,2013-04-23 06:13:00,
2013-04-23 02:18:00,45.9,34.3,30.07,South,174,3.0,10.0,64,0.00,,,0.00,0.0,meteohub,2013-04-23 06:18:00,
2013-04-23 02:23:00,45.7,34.2,30.06,South,188,2.0,10.0,64,0.00,,,0.00,0.0,meteohub,2013-04-23 06:23:00,
2013-04-23 02:28:00,45.7,34.2,30.06,SSE,161,2.0,10.0,64,0.00,,,0.00,0.0,meteohub,2013-04-23 06:28:00,
2013-04-23 02:33:00,45.3,34.3,30.06,SSE,159,2.0,10.0,65,0.00,,,0.00,0.0,meteohub,2013-04-23 06:33:00,
2013-04-23 02:38:00,45.1,34.2,30.06,South,180,1.0,10.0,65,0.00,,,0.00,0.0,meteohub,2013-04-23 06:38:00,
2013-04-23 02:43:00,45.1,34.2,30.06,South,190,5.0,10.0,65,0.00,,,0.00,0.0,meteohub,2013-04-23 06:43:00,
2013-04-23 02:48:00,45.1,33.6,30.06,SSW,193,2.0,10.0,64,0.00,,,0.00,0.0,meteohub,2013-04-23 06:48:00,
2013-04-23 02:53:00,45.3,33.8,30.06,South,182,3.0,10.0,64,0.00,,,0.00,0.0,meteohub,2013-04-23 06:53:00,
2013-04-23 02:58:00,45.1,33.6,30.06,SSE,148,2.0,9.0,64,0.00,,,0.00,0.0,meteohub,2013-04-23 06:58:00,
2013-04-23 03:03:00,45.1,33.6,30.06,South,178,3.0,9.0,64,0.00,,,0.00,0.0,meteohub,2013-04-23 07:03:00,
2013-04-23 03:08:00,45.0,33.4,30.05,South,177,2.0,7.0,64,0.00,,,0.00,0.0,meteohub,2013-04-23 07:08:00,
2013-04-23 03:13:00,45.0,33.4,30.05,SSE,159,1.0,8.0,64,0.00,,,0.00,0.0,meteohub,2013-04-23 07:13:00,
2013-04-23 03:18:00,44.8,33.8,30.05,South,176,3.0,8.0,65,0.00,,,0.00,0.0,meteohub,2013-04-23 07:18:00,
2013-04-23 03:23:00,44.4,33.8,30.05,SE,146,4.0,7.0,66,0.00,,,0.00,0.0,meteohub,2013-04-23 07:23:00,
2013-04-23 03:28:00,44.2,33.6,30.04,SE,146,0.0,6.0,66,0.00,,,0.00,0.0,meteohub,2013-04-23 07:28:00,
2013-04-23 03:33:00,43.9,33.6,30.04,SE,145,3.0,6.0,67,0.00,,,0.00,0.0,meteohub,2013-04-23 07:33:00,
2013-04-23 03:38:00,43.5,33.6,30.04,SSE,147,2.0,5.0,68,0.00,,,0.00,0.0,meteohub,2013-04-23 07:38:00,
2013-04-23 03:43:00,43.3,33.4,30.04,SSE,155,1.0,6.0,68,0.00,,,0.00,0.0,meteohub,2013-04-23 07:43:00,
2013-04-23 03:48:00,43.2,33.6,30.03,SSE,148,2.0,6.0,69,0.00,,,0.00,0.0,meteohub,2013-04-23 07:48:00,
2013-04-23 03:53:00,43.0,33.4,30.03,SSE,163,1.0,6.0,69,0.00,,,0.00,0.0,meteohub,2013-04-23 07:53:00,
2013-04-23 03:58:00,43.0,33.4,30.03,South,171,2.0,6.0,69,0.00,,,0.00,0.0,meteohub,2013-04-23 07:58:00,
2013-04-23 04:03:00,42.6,33.1,30.03,SSE,153,3.0,5.0,69,0.00,,,0.00,0.0,meteohub,2013-04-23 08:03:00,
2013-04-23 04:08:00,42.6,33.1,30.03,SSE,159,2.0,5.0,69,0.00,,,0.00,0.0,meteohub,2013-04-23 08:08:00,
2013-04-23 04:13:00,42.4,33.4,30.02,SSE,159,1.0,5.0,70,0.00,,,0.00,0.0,meteohub,2013-04-23 08:13:00,
2013-04-23 04:18:00,42.3,33.3,30.02,SSE,164,1.0,5.0,70,0.00,,,0.00,0.0,meteohub,2013-04-23 08:18:00,
2013-04-23 04:23:00,42.1,33.1,30.02,SSE,163,1.0,4.0,70,0.00,,,0.00,0.0,meteohub,2013-04-23 08:23:00,
2013-04-23 04:29:00,42.1,33.1,30.02,ESE,121,1.0,4.0,70,0.00,,,0.00,0.0,meteohub,2013-04-23 08:29:00,
2013-04-23 04:34:00,41.9,32.9,30.02,South,170,2.0,4.0,70,0.00,,,0.00,0.0,meteohub,2013-04-23 08:34:00,
2013-04-23 04:39:00,41.9,32.9,30.01,SSE,155,4.0,4.0,70,0.00,,,0.00,0.0,meteohub,2013-04-23 08:39:00,
2013-04-23 04:43:00,41.9,32.9,30.01,SSE,154,2.0,5.0,70,0.00,,,0.00,0.0,meteohub,2013-04-23 08:43:00,
2013-04-23 04:49:00,41.7,32.7,30.01,South,173,2.0,5.0,70,0.00,,,0.00,0.0,meteohub,2013-04-23 08:49:00,
2013-04-23 04:54:00,41.7,32.7,30.00,South,181,4.0,5.0,70,0.00,,,0.00,0.0,meteohub,2013-04-23 08:54:00,
2013-04-23 04:59:00,41.7,32.7,30.00,SSE,167,2.0,5.0,70,0.00,,,0.00,0.0,meteohub,2013-04-23 08:59:00,
2013-04-23 05:04:00,41.7,32.7,30.00,South,175,3.0,5.0,70,0.00,,,0.00,0.0,meteohub,2013-04-23 09:04:00,
2013-04-23 05:09:00,41.9,32.5,30.00,South,180,2.0,5.0,69,0.00,,,0.00,0.0,meteohub,2013-04-23 09:09:00,
2013-04-23 05:14:00,41.9,32.5,29.99,South,177,3.0,5.0,69,0.00,,,0.00,0.0,meteohub,2013-04-23 09:14:00,
2013-04-23 05:19:00,42.1,32.7,29.99,South,175,2.0,5.0,69,0.00,,,0.00,0.0,meteohub,2013-04-23 09:19:00,
2013-04-23 05:24:00,42.1,32.7,29.99,SSE,161,3.0,5.0,69,0.00,,,0.00,0.0,meteohub,2013-04-23 09:24:00,
2013-04-23 05:29:00,42.3,32.5,29.99,South,175,2.0,5.0,68,0.00,,,0.00,0.0,meteohub,2013-04-23 09:29:00,
2013-04-23 05:34:00,42.1,32.7,29.98,SSE,159,2.0,4.0,69,0.00,,,0.00,0.0,meteohub,2013-04-23 09:34:00,
2013-04-23 05:39:00,42.1,32.7,29.98,SSE,163,3.0,4.0,69,0.00,,,0.00,0.0,meteohub,2013-04-23 09:39:00,
2013-04-23 05:44:00,42.1,32.7,29.97,South,186,1.0,5.0,69,0.00,,,0.00,0.0,meteohub,2013-04-23 09:44:00,
2013-04-23 05:49:00,41.9,32.9,29.97,SE,146,4.0,5.0,70,0.00,,,0.00,0.0,meteohub,2013-04-23 09:49:00,
2013-04-23 05:54:00,42.1,32.7,29.96,SSE,158,3.0,5.0,69,0.00,,,0.00,0.0,meteohub,2013-04-23 09:54:00,
2013-04-23 05:59:00,42.1,32.7,29.96,South,174,3.0,4.0,69,0.00,,,0.00,0.0,meteohub,2013-04-23 09:59:00,
2013-04-23 06:04:00,42.3,32.9,29.96,SSE,168,1.0,4.0,69,0.00,,,0.00,0.0,meteohub,2013-04-23 10:04:00,
2013-04-23 06:09:00,42.1,33.1,29.96,South,171,0.0,4.0,70,0.00,,,0.00,0.0,meteohub,2013-04-23 10:09:00,
2013-04-23 06:14:00,41.7,32.7,29.95,South,171,0.0,4.0,70,0.00,,,0.00,0.0,meteohub,2013-04-23 10:14:00,
2013-04-23 06:19:00,41.5,32.9,29.95,South,171,0.0,2.0,71,0.00,,,0.00,0.0,meteohub,2013-04-23 10:19:00,
2013-04-23 06:24:00,41.2,32.5,29.95,South,171,0.0,2.0,71,0.00,,,0.00,0.0,meteohub,2013-04-23 10:24:00,
2013-04-23 06:29:00,41.0,32.4,29.95,South,171,0.0,1.0,71,0.00,,,0.00,0.0,meteohub,2013-04-23 10:29:00,
2013-04-23 06:34:00,40.8,32.5,29.94,South,171,1.0,1.0,72,0.00,,,0.00,0.0,meteohub,2013-04-23 10:34:00,
2013-04-23 06:39:00,40.6,32.4,29.94,South,171,0.0,1.0,72,0.00,,,0.00,0.0,meteohub,2013-04-23 10:39:00,
2013-04-23 06:44:00,40.6,32.7,29.94,South,171,0.0,1.0,73,0.00,,,0.00,5.0,meteohub,2013-04-23 10:44:00,
2013-04-23 06:49:00,40.5,32.9,29.94,South,171,0.0,1.0,74,0.00,,,0.00,7.0,meteohub,2013-04-23 10:49:00,
2013-04-23 06:54:00,40.3,32.7,29.94,South,171,0.0,1.0,74,0.00,,,0.00,11.0,meteohub,2013-04-23 10:54:00,
2013-04-23 06:59:00,40.1,32.9,29.94,South,171,1.0,1.0,75,0.00,,,0.00,16.0,meteohub,2013-04-23 10:59:00,
2013-04-23 07:04:00,39.9,32.9,29.93,SSE,165,1.0,1.0,76,0.00,,,0.00,21.0,meteohub,2013-04-23 11:04:00,
2013-04-23 07:09:00,39.9,32.9,29.93,SSE,147,1.0,2.0,76,0.00,,,0.00,26.0,meteohub,2013-04-23 11:09:00,
2013-04-23 07:14:00,39.9,32.9,29.93,SSE,152,1.0,3.0,76,0.00,,,0.00,32.0,meteohub,2013-04-23 11:14:00,
2013-04-23 07:19:00,39.9,33.3,29.93,SE,146,1.0,3.0,77,0.00,,,0.00,37.0,meteohub,2013-04-23 11:19:00,
2013-04-23 07:24:00,40.3,33.6,29.93,SSE,166,0.0,3.0,77,0.00,,,0.00,44.0,meteohub,2013-04-23 11:24:00,
2013-04-23 07:29:00,40.5,33.4,29.92,SSE,149,1.0,3.0,76,0.00,,,0.00,47.0,meteohub,2013-04-23 11:29:00,
2013-04-23 07:34:00,40.8,33.8,29.92,SSE,147,1.0,3.0,76,0.00,,,0.00,44.0,meteohub,2013-04-23 11:34:00,
2013-04-23 07:39:00,41.2,34.2,29.92,SSE,147,1.0,3.0,76,0.00,,,0.00,39.0,meteohub,2013-04-23 11:39:00,
2013-04-23 07:44:00,41.4,34.3,29.92,SSE,155,2.0,2.0,76,0.00,,,0.00,32.0,meteohub,2013-04-23 11:44:00,
2013-04-23 07:49:00,41.7,34.3,29.91,SSE,157,3.0,3.0,75,0.00,,,0.00,28.0,meteohub,2013-04-23 11:49:00,
2013-04-23 07:54:00,42.1,34.7,29.91,SE,142,2.0,4.0,75,0.00,,,0.00,46.0,meteohub,2013-04-23 11:54:00,
2013-04-23 07:59:00,42.3,34.9,29.91,SE,146,3.0,4.0,75,0.00,,,0.00,63.0,meteohub,2013-04-23 11:59:00,
2013-04-23 08:04:00,42.6,34.9,29.91,SE,136,0.0,4.0,74,0.00,,,0.00,76.0,meteohub,2013-04-23 12:04:00,
2013-04-23 08:09:00,43.0,34.9,29.91,SSE,163,2.0,5.0,73,0.00,,,0.00,70.0,meteohub,2013-04-23 12:09:00,
2013-04-23 08:14:00,43.3,34.9,29.91,ESE,120,4.0,5.0,72,0.00,,,0.00,72.0,meteohub,2013-04-23 12:14:00,
2013-04-23 08:19:00,43.7,35.2,29.90,SE,128,1.0,5.0,72,0.00,,,0.00,83.0,meteohub,2013-04-23 12:19:00,
2013-04-23 08:24:00,44.1,36.0,29.90,SE,140,4.0,5.0,73,0.00,,,0.00,83.0,meteohub,2013-04-23 12:24:00,
2013-04-23 08:29:00,44.2,35.8,29.89,SE,146,2.0,5.0,72,0.00,,,0.00,77.0,meteohub,2013-04-23 12:29:00,
2013-04-23 08:34:00,44.4,35.6,29.89,SE,130,3.0,5.0,71,0.00,,,0.00,95.0,meteohub,2013-04-23 12:34:00,
2013-04-23 08:39:00,44.6,35.8,29.90,SE,126,2.0,5.0,71,0.00,,,0.00,116.0,meteohub,2013-04-23 12:39:00,
2013-04-23 08:44:00,45.0,36.1,29.90,SE,146,2.0,5.0,71,0.00,,,0.00,135.0,meteohub,2013-04-23 12:44:00,
2013-04-23 08:49:00,45.3,36.1,29.89,SE,143,2.0,6.0,70,0.00,,,0.00,163.0,meteohub,2013-04-23 12:49:00,
2013-04-23 08:54:00,45.7,36.1,29.89,SE,145,2.0,6.0,69,0.00,,,0.00,158.0,meteohub,2013-04-23 12:54:00,
2013-04-23 09:00:00,46.0,36.1,29.89,SE,142,3.0,9.0,68,0.00,,,0.00,160.0,meteohub,2013-04-23 13:00:00,
2013-04-23 09:05:00,46.6,36.5,29.89,SSW,193,2.0,9.0,68,0.00,,,0.00,141.0,meteohub,2013-04-23 13:05:00,
2013-04-23 09:10:00,46.8,36.7,29.89,SSE,153,0.0,9.0,68,0.00,,,0.00,137.0,meteohub,2013-04-23 13:10:00,
2013-04-23 09:15:00,46.9,36.9,29.89,South,180,5.0,9.0,68,0.00,,,0.00,139.0,meteohub,2013-04-23 13:15:00,
2013-04-23 09:20:00,47.1,36.7,29.90,SSW,203,3.0,9.0,67,0.00,,,0.00,77.0,meteohub,2013-04-23 13:20:00,
2013-04-23 09:25:00,47.5,36.7,29.90,South,180,3.0,9.0,66,0.00,,,0.00,88.0,meteohub,2013-04-23 13:25:00,
2013-04-23 09:30:00,47.7,36.9,29.90,South,183,0.0,5.0,66,0.00,,,0.00,88.0,meteohub,2013-04-23 13:30:00,
2013-04-23 09:35:00,47.8,37.0,29.90,SE,134,4.0,5.0,66,0.00,,,0.00,109.0,meteohub,2013-04-23 13:35:00,
2013-04-23 09:40:00,48.2,38.1,29.89,SE,141,1.0,5.0,68,0.00,,,0.00,165.0,meteohub,2013-04-23 13:40:00,
2013-04-23 09:45:00,48.6,38.1,29.88,SSE,150,1.0,5.0,67,0.00,,,0.00,197.0,meteohub,2013-04-23 13:45:00,
2013-04-23 09:50:00,49.3,38.5,29.89,SE,140,3.0,5.0,66,0.00,,,0.00,269.0,meteohub,2013-04-23 13:50:00,
2013-04-23 09:55:00,49.8,38.8,29.89,SE,133,5.0,5.0,66,0.00,,,0.00,125.0,meteohub,2013-04-23 13:55:00,
2013-04-23 10:00:00,50.4,38.3,29.88,SSE,160,1.0,5.0,63,0.00,,,0.00,93.0,meteohub,2013-04-23 14:00:00,
2013-04-23 10:05:00,50.7,38.7,29.89,SSW,192,4.0,5.0,63,0.00,,,0.00,100.0,meteohub,2013-04-23 14:05:00,
2013-04-23 10:10:00,51.3,38.3,29.89,SW,215,4.0,5.0,61,0.00,,,0.00,56.0,meteohub,2013-04-23 14:10:00,
2013-04-23 10:15:00,51.4,38.5,29.89,SSW,210,1.0,7.0,61,0.00,,,0.00,49.0,meteohub,2013-04-23 14:15:00,
2013-04-23 10:20:00,51.4,39.2,29.88,SW,214,3.0,7.0,63,0.00,,,0.00,162.0,meteohub,2013-04-23 14:20:00,
2013-04-23 10:25:00,51.4,41.9,29.88,SSE,160,1.0,7.0,70,0.00,,,0.00,248.0,meteohub,2013-04-23 14:25:00,
2013-04-23 10:30:00,51.4,41.9,29.88,SSE,161,4.0,7.0,70,0.00,,,0.00,104.0,meteohub,2013-04-23 14:30:00,
2013-04-23 10:35:00,51.6,40.6,29.88,SSW,197,4.0,7.0,66,0.00,,,0.00,97.0,meteohub,2013-04-23 14:35:00,
2013-04-23 10:40:00,51.8,40.1,29.88,South,188,4.0,7.0,64,0.00,,,0.00,102.0,meteohub,2013-04-23 14:40:00,
2013-04-23 10:45:00,52.2,40.8,29.87,South,171,7.0,9.0,65,0.00,,,0.00,214.0,meteohub,2013-04-23 14:45:00,
2013-04-23 10:50:00,52.3,41.7,29.87,SSW,208,5.0,9.0,67,0.00,,,0.00,171.0,meteohub,2013-04-23 14:50:00,
2013-04-23 10:55:00,52.5,40.6,29.87,South,181,2.0,9.0,64,0.00,,,0.00,148.0,meteohub,2013-04-23 14:55:00,
2013-04-23 11:00:00,52.7,41.7,29.88,SW,215,3.0,8.0,66,0.00,,,0.00,58.0,meteohub,2013-04-23 15:00:00,
2013-04-23 11:05:00,52.3,42.1,29.88,ESE,119,3.0,8.0,68,0.00,,,0.00,95.0,meteohub,2013-04-23 15:05:00,
2013-04-23 11:10:00,52.0,41.4,29.87,SSW,200,5.0,11.0,67,0.00,,,0.00,109.0,meteohub,2013-04-23 15:10:00,
2013-04-23 11:15:00,51.8,41.5,29.86,SSW,213,2.0,11.0,68,0.00,,,0.00,153.0,meteohub,2013-04-23 15:15:00,
2013-04-23 11:20:00,52.0,41.0,29.86,SSW,206,2.0,11.0,66,0.00,,,0.00,114.0,meteohub,2013-04-23 15:20:00,
2013-04-23 11:25:00,52.0,41.4,29.87,SSW,195,3.0,6.0,67,0.00,,,0.00,97.0,meteohub,2013-04-23 15:25:00,
2013-04-23 11:30:00,52.0,40.6,29.86,SW,229,3.0,6.0,65,0.00,,,0.00,111.0,meteohub,2013-04-23 15:30:00,
2013-04-23 11:35:00,52.0,41.0,29.86,SW,214,4.0,6.0,66,0.00,,,0.00,102.0,meteohub,2013-04-23 15:35:00,
2013-04-23 11:40:00,52.0,41.4,29.86,South,185,2.0,6.0,67,0.00,,,0.00,95.0,meteohub,2013-04-23 15:40:00,
2013-04-23 11:45:00,52.2,41.9,29.86,SSW,213,3.0,6.0,68,0.00,,,0.00,93.0,meteohub,2013-04-23 15:45:00,
2013-04-23 11:51:00,52.3,42.1,29.86,South,175,4.0,8.0,68,0.00,,,0.00,127.0,meteohub,2013-04-23 15:51:00,
2013-04-23 11:56:00,52.5,43.0,29.86,SE,132,7.0,9.0,70,0.00,,,0.00,236.0,meteohub,2013-04-23 15:56:00,
2013-04-23 12:01:00,53.1,42.4,29.85,South,186,4.0,9.0,67,0.00,,,0.00,466.0,meteohub,2013-04-23 16:01:00,
2013-04-23 12:06:00,54.0,43.3,29.85,SW,219,4.0,9.0,67,0.00,,,0.00,367.0,meteohub,2013-04-23 16:06:00,
2013-04-23 12:11:00,54.3,42.8,29.85,SW,214,9.0,9.0,65,0.00,,,0.00,434.0,meteohub,2013-04-23 16:11:00,
2013-04-23 12:16:00,54.9,42.4,29.85,SW,215,4.0,9.0,63,0.00,,,0.00,316.0,meteohub,2013-04-23 16:16:00,
2013-04-23 12:21:00,55.0,43.2,29.85,SW,214,10.0,10.0,64,0.00,,,0.00,346.0,meteohub,2013-04-23 16:21:00,
2013-04-23 12:26:00,55.0,43.2,29.84,South,173,4.0,11.0,64,0.00,,,0.00,350.0,meteohub,2013-04-23 16:26:00,
2013-04-23 12:31:00,55.2,42.8,29.84,SSW,207,3.0,11.0,63,0.00,,,0.00,499.0,meteohub,2013-04-23 16:31:00,
2013-04-23 12:36:00,56.3,43.5,29.83,South,182,6.0,11.0,62,0.00,,,0.00,568.0,meteohub,2013-04-23 16:36:00,
2013-04-23 12:41:00,56.7,43.0,29.83,WSW,243,5.0,10.0,60,0.00,,,0.00,541.0,meteohub,2013-04-23 16:41:00,
2013-04-23 12:46:00,56.5,42.8,29.83,WSW,239,2.0,10.0,60,0.00,,,0.00,461.0,meteohub,2013-04-23 16:46:00,
2013-04-23 12:51:00,56.5,43.7,29.83,SSW,198,6.0,14.0,62,0.00,,,0.00,577.0,meteohub,2013-04-23 16:51:00,
2013-04-23 12:56:00,57.0,43.7,29.83,South,173,4.0,14.0,61,0.00,,,0.00,383.0,meteohub,2013-04-23 16:56:00,
2013-04-23 13:01:00,57.2,43.5,29.83,SW,225,7.0,14.0,60,0.00,,,0.00,269.0,meteohub,2013-04-23 17:01:00,
2013-04-23 13:06:00,56.7,43.7,29.83,SW,225,6.0,10.0,62,0.00,,,0.00,258.0,meteohub,2013-04-23 17:06:00,
2013-04-23 13:11:00,56.7,43.3,29.83,West,261,9.0,10.0,61,0.00,,,0.00,185.0,meteohub,2013-04-23 17:11:00,
2013-04-23 13:16:00,56.5,43.7,29.83,WSW,246,5.0,10.0,62,0.00,,,0.00,234.0,meteohub,2013-04-23 17:16:00,
2013-04-23 13:21:00,56.8,43.9,29.82,WSW,241,3.0,10.0,62,0.00,,,0.00,241.0,meteohub,2013-04-23 17:21:00,
2013-04-23 13:26:00,56.8,43.9,29.82,SW,225,3.0,10.0,62,0.00,,,0.00,227.0,meteohub,2013-04-23 17:26:00,
2013-04-23 13:31:00,57.0,44.1,29.82,SSW,209,5.0,8.0,62,0.00,,,0.00,156.0,meteohub,2013-04-23 17:31:00,
2013-04-23 13:36:00,57.2,44.8,29.82,WSW,240,2.0,8.0,63,0.00,,,0.00,128.0,meteohub,2013-04-23 17:36:00,
2013-04-23 13:41:00,56.8,44.8,29.82,SW,230,8.0,8.0,64,0.00,,,0.00,84.0,meteohub,2013-04-23 17:41:00,
2013-04-23 13:46:00,56.5,44.8,29.82,South,180,3.0,8.0,65,0.00,,,0.00,134.0,meteohub,2013-04-23 17:46:00,
2013-04-23 13:51:00,56.3,45.1,29.82,South,176,2.0,8.0,66,0.00,,,0.00,60.0,meteohub,2013-04-23 17:51:00,
2013-04-23 13:56:00,56.1,45.0,29.82,SW,229,4.0,8.0,66,0.00,,,0.00,72.0,meteohub,2013-04-23 17:56:00,
2013-04-23 14:01:00,56.1,44.6,29.81,SW,217,5.0,8.0,65,0.00,,,0.00,91.0,meteohub,2013-04-23 18:01:00,
2013-04-23 14:06:00,55.9,44.8,29.82,SSW,206,1.0,6.0,66,0.00,,,0.00,84.0,meteohub,2013-04-23 18:06:00,
2013-04-23 14:11:00,55.8,44.6,29.82,WSW,238,2.0,6.0,66,0.00,,,0.00,116.0,meteohub,2013-04-23 18:11:00,
2013-04-23 14:16:00,55.8,45.0,29.81,SW,230,2.0,8.0,67,0.00,,,0.00,123.0,meteohub,2013-04-23 18:16:00,
2013-04-23 14:21:00,55.9,45.5,29.81,SSW,197,3.0,9.0,68,0.00,,,0.00,234.0,meteohub,2013-04-23 18:21:00,
2013-04-23 14:26:00,55.8,45.7,29.81,SSW,211,3.0,9.0,69,0.00,,,0.00,248.0,meteohub,2013-04-23 18:26:00,
2013-04-23 14:31:00,55.9,45.5,29.81,West,280,6.0,10.0,68,0.00,,,0.00,216.0,meteohub,2013-04-23 18:31:00,
2013-04-23 14:36:00,56.5,46.0,29.81,SW,219,13.0,13.0,68,0.00,,,0.00,225.0,meteohub,2013-04-23 18:36:00,
2013-04-23 14:42:00,56.5,46.4,29.80,WSW,258,4.0,13.0,69,0.00,,,0.00,243.0,meteohub,2013-04-23 18:42:00,
2013-04-23 14:47:00,56.1,46.0,29.80,SSW,211,3.0,13.0,69,0.00,,,0.00,223.0,meteohub,2013-04-23 18:47:00,
2013-04-23 14:52:00,56.3,46.6,29.80,WSW,249,1.0,13.0,70,0.00,,,0.00,202.0,meteohub,2013-04-23 18:52:00,
2013-04-23 14:57:00,56.1,46.8,29.80,SSW,203,2.0,11.0,71,0.00,,,0.00,137.0,meteohub,2013-04-23 18:57:00,
2013-04-23 15:02:00,56.1,46.8,29.80,SW,234,3.0,10.0,71,0.00,,,0.00,116.0,meteohub,2013-04-23 19:02:00,
2013-04-23 15:07:00,55.6,46.8,29.81,SW,235,6.0,10.0,72,0.00,,,0.00,79.0,meteohub,2013-04-23 19:07:00,
2013-04-23 15:12:00,55.0,46.6,29.81,WNW,285,2.0,10.0,73,0.00,,,0.00,70.0,meteohub,2013-04-23 19:12:00,
2013-04-23 15:17:00,54.3,46.6,29.81,WNW,297,1.0,13.0,75,0.00,,,0.00,54.0,meteohub,2013-04-23 19:17:00,
2013-04-23 15:22:00,54.0,46.6,29.81,WNW,292,2.0,13.0,76,0.00,,,0.00,58.0,meteohub,2013-04-23 19:22:00,
2013-04-23 15:27:00,53.4,46.4,29.81,NW,309,2.0,13.0,77,0.00,,,0.00,56.0,meteohub,2013-04-23 19:27:00,
2013-04-23 15:32:00,53.1,46.8,29.81,NW,316,2.0,5.0,79,0.00,,,0.00,62.0,meteohub,2013-04-23 19:32:00,
2013-04-23 15:37:00,52.3,46.8,29.81,West,271,1.0,6.0,81,0.00,,,0.00,65.0,meteohub,2013-04-23 19:37:00,
2013-04-23 15:42:00,52.0,46.9,29.81,NW,304,4.0,6.0,83,0.00,,,0.00,88.0,meteohub,2013-04-23 19:42:00,
2013-04-23 15:47:00,51.3,46.9,29.81,West,272,2.0,5.0,85,0.00,,,0.00,79.0,meteohub,2013-04-23 19:47:00,
2013-04-23 15:52:00,50.5,46.8,29.81,WNW,289,2.0,5.0,87,0.00,,,0.00,83.0,meteohub,2013-04-23 19:52:00,
2013-04-23 15:57:00,50.0,46.9,29.82,WNW,296,2.0,5.0,89,0.01,,,0.01,49.0,meteohub,2013-04-23 19:57:00,
2013-04-23 16:02:00,49.5,46.4,29.82,NW,320,2.0,5.0,89,0.01,,,0.01,44.0,meteohub,2013-04-23 20:02:00,
2013-04-23 16:07:00,48.9,46.0,29.82,West,276,2.0,4.0,90,0.02,,,0.02,25.0,meteohub,2013-04-23 20:07:00,
2013-04-23 16:12:00,48.2,45.3,29.82,WNW,282,3.0,4.0,90,0.02,,,0.02,26.0,meteohub,2013-04-23 20:12:00,
2013-04-23 16:17:00,47.5,44.8,29.82,WNW,300,2.0,4.0,90,0.02,,,0.02,26.0,meteohub,2013-04-23 20:17:00,
2013-04-23 16:22:00,46.9,44.4,29.83,WNW,290,1.0,4.0,91,0.03,,,0.03,21.0,meteohub,2013-04-23 20:22:00,
2013-04-23 16:27:00,46.4,43.9,29.83,WSW,257,2.0,5.0,91,0.03,,,0.03,25.0,meteohub,2013-04-23 20:27:00,
2013-04-23 16:32:00,46.0,43.9,29.83,West,265,5.0,8.0,92,0.05,,,0.05,23.0,meteohub,2013-04-23 20:32:00,
2013-04-23 16:37:00,45.7,43.7,29.84,West,273,3.0,10.0,93,0.05,,,0.05,19.0,meteohub,2013-04-23 20:37:00,
2013-04-23 16:42:00,45.1,43.2,29.84,WNW,283,2.0,10.0,93,0.07,,,0.07,30.0,meteohub,2013-04-23 20:42:00,
2013-04-23 16:47:00,45.0,43.0,29.84,NW,309,3.0,10.0,93,0.09,,,0.09,32.0,meteohub,2013-04-23 20:47:00,
2013-04-23 16:52:00,44.2,42.1,29.84,NW,306,3.0,5.0,92,0.09,,,0.10,60.0,meteohub,2013-04-23 20:52:00,
2013-04-23 16:57:00,43.3,41.2,29.84,WNW,295,3.0,7.0,92,0.10,,,0.11,76.0,meteohub,2013-04-23 20:57:00,
2013-04-23 17:02:00,42.6,40.5,29.84,WNW,301,2.0,7.0,92,0.10,,,0.12,47.0,meteohub,2013-04-23 21:02:00,
2013-04-23 17:07:00,42.4,40.6,29.84,WNW,296,1.0,7.0,93,0.11,,,0.13,46.0,meteohub,2013-04-23 21:07:00,
2013-04-23 17:12:00,42.1,40.3,29.84,WNW,294,3.0,5.0,93,0.12,,,0.14,40.0,meteohub,2013-04-23 21:12:00,
2013-04-23 17:17:00,41.4,39.6,29.84,NW,307,3.0,4.0,93,0.12,,,0.15,42.0,meteohub,2013-04-23 21:17:00,
2013-04-23 17:22:00,40.8,39.2,29.84,WNW,295,2.0,4.0,94,0.13,,,0.16,39.0,meteohub,2013-04-23 21:22:00,
2013-04-23 17:27:00,40.6,39.0,29.84,NW,309,2.0,4.0,94,0.12,,,0.16,42.0,meteohub,2013-04-23 21:27:00,
2013-04-23 17:32:00,40.3,38.7,29.83,NW,306,3.0,4.0,94,0.12,,,0.17,51.0,meteohub,2013-04-23 21:32:00,
2013-04-23 17:37:00,39.7,38.1,29.84,WNW,301,2.0,5.0,94,0.12,,,0.18,42.0,meteohub,2013-04-23 21:37:00,
2013-04-23 17:42:00,39.6,37.9,29.85,WNW,298,1.0,6.0,94,0.10,,,0.18,33.0,meteohub,2013-04-23 21:42:00,
2013-04-23 17:47:00,39.0,37.4,29.85,WNW,293,3.0,6.0,94,0.10,,,0.19,32.0,meteohub,2013-04-23 21:47:00,
2013-04-23 17:52:00,38.8,37.6,29.85,WNW,297,2.0,5.0,95,0.09,,,0.19,26.0,meteohub,2013-04-23 21:52:00,
2013-04-23 17:57:00,38.8,37.6,29.85,WNW,293,3.0,5.0,95,0.08,,,0.20,28.0,meteohub,2013-04-23 21:57:00,
2013-04-23 18:02:00,38.7,37.4,29.85,WNW,286,1.0,5.0,95,0.07,,,0.20,25.0,meteohub,2013-04-23 22:02:00,
2013-04-23 18:08:00,38.5,37.2,29.84,WNW,297,3.0,5.0,95,0.07,,,0.21,32.0,meteohub,2013-04-23 22:08:00,
2013-04-23 18:13:00,38.5,37.2,29.84,WNW,294,2.0,4.0,95,0.06,,,0.21,26.0,meteohub,2013-04-23 22:13:00,
2013-04-23 18:18:00,38.3,37.0,29.85,NW,314,2.0,4.0,95,0.07,,,0.22,26.0,meteohub,2013-04-23 22:18:00,
2013-04-23 18:23:00,38.3,37.2,29.85,NW,304,2.0,4.0,96,0.06,,,0.22,25.0,meteohub,2013-04-23 22:23:00,
2013-04-23 18:28:00,38.1,37.0,29.85,NW,311,2.0,4.0,96,0.06,,,0.23,23.0,meteohub,2013-04-23 22:28:00,
2013-04-23 18:33:00,37.9,36.7,29.85,NW,311,2.0,4.0,95,0.07,,,0.24,23.0,meteohub,2013-04-23 22:33:00,
2013-04-23 18:38:00,37.9,36.9,29.85,WNW,302,3.0,4.0,96,0.06,,,0.24,21.0,meteohub,2013-04-23 22:38:00,
2013-04-23 18:43:00,37.8,36.5,29.86,WNW,297,3.0,6.0,95,0.06,,,0.24,18.0,meteohub,2013-04-23 22:43:00,
2013-04-23 18:48:00,37.6,36.3,29.86,NW,311,4.0,6.0,95,0.06,,,0.25,19.0,meteohub,2013-04-23 22:48:00,
2013-04-23 18:53:00,37.4,36.1,29.86,NW,313,2.0,6.0,95,0.07,,,0.26,18.0,meteohub,2013-04-23 22:53:00,
2013-04-23 18:58:00,37.2,36.0,29.86,WNW,294,2.0,6.0,95,0.07,,,0.26,18.0,meteohub,2013-04-23 22:58:00,
2013-04-23 19:03:00,37.0,35.8,29.86,NW,313,3.0,5.0,95,0.07,,,0.28,14.0,meteohub,2013-04-23 23:03:00,
2013-04-23 19:08:00,37.0,35.8,29.86,NW,306,2.0,5.0,95,0.08,,,0.29,14.0,meteohub,2013-04-23 23:08:00,
2013-04-23 19:13:00,36.9,35.6,29.86,NW,311,3.0,5.0,95,0.08,,,0.30,14.0,meteohub,2013-04-23 23:13:00,
2013-04-23 19:18:00,36.7,35.4,29.86,NW,309,3.0,5.0,95,0.09,,,0.31,16.0,meteohub,2013-04-23 23:18:00,
2013-04-23 19:23:00,36.3,35.1,29.86,WNW,297,2.0,6.0,95,0.09,,,0.32,12.0,meteohub,2013-04-23 23:23:00,
2013-04-23 19:29:00,36.1,34.9,29.86,NNW,329,4.0,6.0,95,0.10,,,0.33,9.0,meteohub,2013-04-23 23:29:00,
2013-04-23 19:34:00,35.8,34.5,29.86,WNW,298,2.0,6.0,95,0.10,,,0.34,11.0,meteohub,2013-04-23 23:34:00,
2013-04-23 19:39:00,35.6,34.3,29.86,WNW,296,2.0,5.0,95,0.10,,,0.34,11.0,meteohub,2013-04-23 23:39:00,
2013-04-23 19:44:00,35.4,34.3,29.86,NW,304,2.0,6.0,96,0.09,,,0.34,9.0,meteohub,2013-04-23 23:44:00,
2013-04-23 19:49:00,35.2,34.2,29.86,WNW,301,4.0,6.0,96,0.09,,,0.35,7.0,meteohub,2013-04-23 23:49:00,
2013-04-23 19:54:00,35.1,34.0,29.86,NW,315,2.0,6.0,96,0.10,,,0.36,7.0,meteohub,2013-04-23 23:54:00,
2013-04-23 19:59:00,34.9,33.8,29.86,NW,307,5.0,5.0,96,0.09,,,0.36,7.0,meteohub,2013-04-23 23:59:00,
2013-04-23 20:04:00,34.5,33.4,29.87,NW,319,3.0,4.0,96,0.08,,,0.36,7.0,meteohub,2013-04-24 00:04:00,
2013-04-23 20:09:00,34.3,33.3,29.87,NW,312,2.0,5.0,96,0.07,,,0.00,5.0,meteohub,2013-04-24 00:09:00,
2013-04-23 20:14:00,34.3,33.3,29.87,NW,314,3.0,5.0,96,0.06,,,0.00,0.0,meteohub,2013-04-24 00:14:00,
2013-04-23 20:19:00,34.2,33.1,29.87,NW,309,2.0,4.0,96,0.05,,,0.00,0.0,meteohub,2013-04-24 00:19:00,
2013-04-23 20:24:00,34.2,33.1,29.87,WNW,302,2.0,4.0,96,0.04,,,0.00,0.0,meteohub,2013-04-24 00:24:00,
2013-04-23 20:29:00,34.2,33.1,29.87,NNW,330,2.0,4.0,96,0.03,,,0.00,0.0,meteohub,2013-04-24 00:29:00,
2013-04-23 20:34:00,34.0,32.9,29.87,NW,318,3.0,4.0,96,0.02,,,0.00,0.0,meteohub,2013-04-24 00:34:00,
2013-04-23 20:39:00,34.0,32.9,29.87,NW,308,2.0,4.0,96,0.02,,,0.00,0.0,meteohub,2013-04-24 00:39:00,
2013-04-23 20:44:00,33.8,32.7,29.87,NW,310,1.0,5.0,96,0.01,,,0.00,0.0,meteohub,2013-04-24 00:44:00,
2013-04-23 20:49:00,33.8,32.7,29.87,NW,313,2.0,5.0,96,0.01,,,0.00,0.0,meteohub,2013-04-24 00:49:00,
2013-04-23 20:54:00,33.6,32.5,29.87,NW,313,1.0,5.0,96,0.00,,,0.00,0.0,meteohub,2013-04-24 00:54:00,
2013-04-23 20:59:00,33.6,32.5,29.86,NW,313,1.0,3.0,96,0.00,,,0.00,0.0,meteohub,2013-04-24 00:59:00,
2013-04-23 21:04:00,33.6,32.5,29.87,NW,313,1.0,2.0,96,0.00,,,0.00,0.0,meteohub,2013-04-24 01:04:00,
2013-04-23 21:10:00,33.6,32.9,29.87,NW,313,2.0,2.0,97,0.00,,,0.00,0.0,meteohub,2013-04-24 01:10:00,
2013-04-23 21:15:00,33.6,32.9,29.87,NW,312,2.0,2.0,97,0.00,,,0.00,0.0,meteohub,2013-04-24 01:15:00,
2013-04-23 21:20:00,33.4,32.7,29.87,NW,311,2.0,3.0,97,0.00,,,0.00,0.0,meteohub,2013-04-24 01:20:00,
2013-04-23 21:25:00,33.4,32.7,29.88,NW,312,2.0,3.0,97,0.00,,,0.00,0.0,meteohub,2013-04-24 01:25:00,
2013-04-23 21:30:00,33.4,32.7,29.88,NW,306,2.0,3.0,97,0.00,,,0.00,0.0,meteohub,2013-04-24 01:30:00,
2013-04-23 21:35:00,33.4,32.7,29.88,WNW,300,2.0,3.0,97,0.00,,,0.00,0.0,meteohub,2013-04-24 01:35:00,
2013-04-23 21:40:00,33.4,32.7,29.88,WNW,296,2.0,3.0,97,0.00,,,0.00,0.0,meteohub,2013-04-24 01:40:00,
2013-04-23 21:45:00,33.4,32.7,29.88,NW,311,2.0,3.0,97,0.00,,,0.00,0.0,meteohub,2013-04-24 01:45:00,
2013-04-23 21:50:00,33.4,32.7,29.88,NW,308,1.0,3.0,97,0.00,,,0.00,0.0,meteohub,2013-04-24 01:50:00,
2013-04-23 21:55:00,33.4,32.7,29.88,NW,309,2.0,3.0,97,0.00,,,0.00,0.0,meteohub,2013-04-24 01:55:00,
2013-04-23 22:00:00,33.4,32.7,29.88,WNW,298,2.0,3.0,97,0.00,,,0.00,0.0,meteohub,2013-04-24 02:00:00,
2013-04-23 22:05:00,33.4,32.7,29.88,NW,315,2.0,3.0,97,0.00,,,0.00,0.0,meteohub,2013-04-24 02:05:00,
2013-04-23 22:10:00,33.4,32.7,29.88,NW,310,3.0,4.0,97,0.00,,,0.00,0.0,meteohub,2013-04-24 02:10:00,
2013-04-23 22:15:00,33.4,32.7,29.88,NW,311,2.0,4.0,97,0.00,,,0.00,0.0,meteohub,2013-04-24 02:15:00,
2013-04-23 22:20:00,33.6,32.9,29.88,NNE,18,2.0,3.0,97,0.00,,,0.00,0.0,meteohub,2013-04-24 02:20:00,
2013-04-23 22:25:00,33.6,32.9,29.87,NW,306,2.0,3.0,97,0.00,,,0.00,0.0,meteohub,2013-04-24 02:25:00,
2013-04-23 22:31:00,33.6,32.9,29.87,NW,313,1.0,3.0,97,0.00,,,0.00,0.0,meteohub,2013-04-24 02:31:00,
2013-04-23 22:37:00,33.6,32.5,29.87,WNW,302,1.0,4.0,96,0.00,,,0.00,0.0,meteohub,2013-04-24 02:37:00,
2013-04-23 22:42:00,33.6,32.5,29.88,WNW,298,2.0,4.0,96,0.00,,,0.00,0.0,meteohub,2013-04-24 02:42:00,
2013-04-23 22:47:00,33.6,32.5,29.88,WNW,297,1.0,3.0,96,0.00,,,0.00,0.0,meteohub,2013-04-24 02:47:00,
2013-04-23 22:51:00,33.6,32.5,29.88,WNW,296,1.0,4.0,96,0.00,,,0.00,0.0,meteohub,2013-04-24 02:51:00,
2013-04-23 22:52:00,33.6,32.5,29.88,NW,317,1.0,4.0,96,0.00,,,0.00,0.0,meteohub,2013-04-24 02:52:00,
2013-04-23 23:02:00,33.6,32.4,29.88,WNW,300,2.0,4.0,95,0.00,,,0.00,0.0,meteohub,2013-04-24 03:02:00,
2013-04-23 23:07:00,33.4,32.2,29.88,WNW,292,3.0,4.0,95,0.00,,,0.00,0.0,meteohub,2013-04-24 03:07:00,
2013-04-23 23:12:00,33.4,32.2,29.88,NW,304,2.0,4.0,95,0.00,,,0.00,0.0,meteohub,2013-04-24 03:12:00,
2013-04-23 23:22:00,33.4,32.2,29.88,WNW,294,2.0,4.0,95,0.00,,,0.00,0.0,meteohub,2013-04-24 03:22:00,
2013-04-23 23:27:00,33.4,31.8,29.88,WNW,302,2.0,4.0,94,0.00,,,0.00,0.0,meteohub,2013-04-24 03:27:00,
2013-04-23 23:32:00,33.4,31.8,29.88,NW,310,3.0,4.0,94,0.00,,,0.00,0.0,meteohub,2013-04-24 03:32:00,
2013-04-23 23:38:00,33.4,31.8,29.88,NW,315,2.0,4.0,94,0.00,,,0.00,0.0,meteohub,2013-04-24 03:38:00,
2013-04-23 23:43:00,33.4,31.8,29.88,WNW,291,2.0,4.0,94,0.00,,,0.00,0.0,meteohub,2013-04-24 03:43:00,
2013-04-23 23:53:00,33.4,31.8,29.88,WNW,297,2.0,4.0,94,0.00,,,0.00,0.0,meteohub,2013-04-24 03:53:00,